#timestamp,LO_Frequency,Hit,StdDev 
1676008815.4,286047002.5,N
1676008835.2,286046999.8,N
1676008855.1,286047000.2,N
1676008856.0,286047000.2,N
1676008875.8,286046999.7,N
1676008895.6,286047002.3,N
1676008915.5,286047002.6,N
1676008935.3,286047002.8,N
1676008955.1,286047002.5,N
1676008975.9,286047002.2,N
1676008995.7,286047000.5,N
1676009015.6,286047002.3,N
1676009035.4,286047002.0,N
1676009055.2,286047001.2,N
1676009075.1,286047001.8,N
1676009076.0,286047001.8,N
1676009095.8,286047002.4,N
1676009115.7,286046999.8,N
1676009135.5,286047000.2,N
1676009155.3,286047000.1,N
1676009175.2,286047004.3,Y
1676009195.0,286047000.3,P
1676009195.9,286047000.3,N
1676009215.8,286047003.6,P
1676009235.6,286047002.7,N
1676009255.4,286047000.3,N
1676009275.3,286046999.8,N
1676009295.1,286046999.7,N
1676009315.8,286047002.8,N
1676009335.7,286047000.4,N
1676009355.5,286047000.0,N
1676009375.4,286046999.7,N
1676009395.2,286047000.4,N
1676009415.0,286047002.3,N
1676009415.9,286047002.3,N
1676009435.8,286047004.1,Y
1676009455.6,286047001.8,P
1676009475.5,286047000.5,N
1676009495.3,286046998.9,N
1676009515.1,286046999.1,N
1676009535.9,286046999.2,N
1676009555.7,286046998.8,N
1676009575.5,286046998.3,N
1676009595.4,286047000.1,N
1676009615.2,286047000.8,N
1676009635.1,286046999.5,N
1676009636.0,286046999.5,N
1676009655.8,286046999.0,N
1676009675.6,286046998.8,N
1676009695.5,286046998.9,N
1676009715.3,286046998.6,N
1676009735.1,286046998.6,N
1676009755.9,286046998.9,N
1676009775.7,286046995.3,Y
1676009795.6,286046997.5,P
1676009815.4,286046997.7,N
1676009835.2,286046997.5,N
1676009855.1,286046996.9,Y
1676009856.0,286046996.9,P
1676009875.8,286047001.6,N
1676009895.7,286047004.0,N
1676009915.5,286047004.4,N
1676009935.3,286047001.6,N
1676009955.2,286047002.8,N
1676009975.0,286047003.0,N
1676009975.9,286047003.0,N
1676009995.7,286047001.6,N
1676010015.6,286047004.4,N
1676010035.4,286047001.3,N
1676010055.3,286047003.9,N
1676010075.1,286047001.3,N
1676010076.0,286047001.3,N
1676010095.8,286047002.4,N
1676010115.7,286047002.2,N
1676010135.5,286047003.8,N
1676010155.3,286047001.7,N
1676010175.2,286047002.3,N
1676010195.0,286047003.9,N
1676010195.9,286047003.9,N
1676010215.8,286047004.3,N
1676010235.6,286047001.8,N
1676010255.4,286047003.1,N
1676010275.3,286047003.7,N
1676010295.1,286047004.2,N
1676010315.8,286047003.9,N
1676010335.7,286047003.6,N
1676010355.5,286047004.3,N
1676010375.4,286047003.7,N
1676010395.2,286047004.3,N
1676010415.0,286047002.2,N
1676010415.9,286047002.2,N
1676010435.8,286047002.6,N
1676010455.6,286047002.3,N
1676010475.4,286047001.8,N
1676010495.3,286047003.4,Y
1676010515.1,286047002.7,P
1676010535.9,286046998.6,P
1676010555.7,286046998.4,N
1676010575.5,286047000.9,N
1676010595.4,286047002.3,N
1676010615.2,286046999.8,N
1676010635.0,286046999.7,N
1676010636.0,286046999.7,N
1676010655.8,286047001.3,N
1676010675.6,286047000.6,N
1676010695.5,286047000.8,N
1676010715.3,286047000.6,N
1676010735.1,286047001.0,N
1676010755.9,286047000.5,N
1676010775.7,286047000.7,N
1676010795.6,286047000.0,N
1676010815.4,286047000.1,N
1676010835.2,286047000.0,N
1676010855.1,286046998.2,N
1676010856.0,286046998.2,N
1676010875.8,286046999.0,N
1676010895.6,286046999.8,N
1676010915.5,286047000.2,N
1676010935.3,286047000.7,N
1676010955.2,286047000.0,N
1676010975.9,286047001.0,N
1676010995.7,286047001.0,N
1676011015.6,286046999.3,N
1676011035.4,286046998.2,N
1676011055.2,286047000.8,N
1676011075.1,286047000.4,N
1676011076.0,286047000.4,N
1676011095.8,286046998.2,N
1676011115.7,286046998.4,N
1676011135.5,286047000.0,N
1676011155.3,286047004.4,Y
1676011175.2,286047001.7,P
1676011195.0,286047002.0,N
1676011195.9,286047002.0,N
1676011215.8,286046999.7,N
1676011235.6,286047002.4,N
1676011255.4,286047002.4,N
1676011275.3,286047002.4,N
1676011295.1,286047000.1,N
1676011315.8,286046999.7,N
1676011335.7,286047000.3,N
1676011355.5,286046999.9,N
1676011375.4,286047002.1,N
1676011395.2,286047002.1,N
1676011415.0,286047002.7,N
1676011415.9,286047002.7,N
1676011435.8,286047002.2,N
1676011455.6,286047000.9,N
1676011475.4,286046998.9,N
1676011495.3,286046998.9,N
1676011515.1,286046998.7,N
1676011535.9,286047000.3,N
1676011555.7,286047002.8,N
1676011575.5,286046998.1,N
1676011595.4,286046998.8,N
1676011615.2,286047000.8,N
1676011635.0,286046999.9,N
1676011635.9,286046999.9,N
1676011655.8,286047000.4,N
1676011675.6,286047000.2,N
1676011695.5,286046999.9,N
1676011715.3,286047000.3,N
1676011735.1,286047000.4,N
1676011755.9,286046998.6,N
1676011775.7,286046998.8,N
1676011795.5,286047000.9,N
1676011815.4,286047002.6,N
1676011835.2,286047000.3,N
1676011855.1,286047000.6,N
1676011856.0,286047000.6,N
1676011875.8,286047000.6,N
1676011895.6,286047002.0,N
1676011915.5,286047000.2,N
1676011935.3,286047000.8,N
1676011955.2,286047000.2,N
1676011975.9,286047002.7,N
1676011995.7,286047000.3,N
1676012015.6,286046998.2,N
1676012035.4,286047001.0,N
1676012055.2,286047002.4,N
1676012075.1,286047001.1,N
1676012076.0,286047001.1,N
1676012095.8,286046999.4,N
1676012115.7,286047000.1,N
1676012135.5,286046999.1,N
1676012155.3,286046999.5,N
1676012175.2,286047001.1,N
1676012195.0,286047001.0,N
1676012195.9,286047001.0,N
1676012215.8,286047000.6,N
1676012235.6,286047000.3,N
1676012255.4,286047000.8,N
1676012275.3,286047000.9,N
1676012295.1,286047000.9,N
1676012315.9,286046998.1,N
1676012335.7,286046998.3,N
1676012355.5,286046999.5,N
1676012375.4,286047001.1,N
1676012395.2,286047003.5,Y
